Location: Crab Orchard
(37.7292°N, 88.8042°W)
Time: 14:57:34
(UTC+00:00)

OAO 2 Rocket - Pass Details

Date: 08 December 2019
Orbit: 676 x 746 km, 35.0° (Epoch: 22 January)

Event Time Altitude Azimuth Distance (km) Brightness Sun altitude
Rises 23:25:30 0° 252° (WSW) 3,035 9.0 -9.7°
Reaches altitude 10° 23:27:54 10° 248° (WSW) 2,129 7.5 -10.1°
Maximum altitude 23:32:47 58° 171° (S) 813 3.7 -11.0°
Enters shadow 23:37:08 14° 94° (E) 1,937 5.0 -11.8°
